CAPE
0 0 182 316 463 507 650 451 649 712 725 748 859 901 961 950 972 1024 1072 972 1182 785 475 362 387 444 539 654 724 737 650 606 1091 953 902 694 825 927 938 895 883 845 927
0 0 115 240 312 306 345 425 430 307 293 462 599 677 934 933 998 902 867 841 910 935 728 457 407 401 402 443 481 478 507 666 729 1060 723 462 527 763 828 784 716 660 735
0 0 0 79 42 51 33 81 91 64 86 117 294 431 580 585 602 586 641 668 644 667 766 618 443 407 376 352 359 359 416 478 326 727 919 630 367 388 465 621 597 521 485
19 0 0 21 55 105 53 41 7 81 163 300 308 253 292 433 418 363 344 397 504 636 704 729 585 438 319 315 387 406 440 538 436 443 382 554 736 730 597 516 439 491 537
18 11 11 98 165 107 58 39 24 10 223 435 425 422 132 144 153 209 284 255 204 233 298 322 264 208 183 352 452 395 365 270 169 485 197 305 574 892 930 808 711 585 505
34 21 46 117 147 33 0 0 0 0 0 39 190 461 283 355 501 566 622 739 557 341 346 428 280 123 180 123 119 123 126 306 99 190 119 139 370 808 788 603 794 820 748
14 15 30 69 79 0 0 15 0 0 0 12 102 368 583 523 465 448 495 421 388 418 369 572 618 520 359 197 125 69 82 92 118 127 163 123 159 769 657 454 510 535 454
5 3 2 3 0 0 0 0 0 34 11 0 69 177 134 187 145 37 0 72 97 112 109 168 187 363 420 355 245 107 44 98 5 33 256 271 87 658 510 339 315 296 185
0 0 3 5 0 0 0 0 0 0 2 2 3 21 75 104 26 0 0 0 20 32 53 34 137 67 171 164 132 18 0 80 8 1 139 298 229 757 506 345 246 182 102
0 0 0 0 0 0 0 0 0 0 0 0 0 0 1 0 0 0 0 0 0 0 19 31 50 150 126 61 0 0 25 65 110 42 120 258 298 825 627 322 220 204 121
0 0 0 0 0 0 0 0 0 0 0 0 0 0 0 0 0 0 0 0 0 0 5 0 0 17 125 140 5 0 0 64 199 101 257 212 409 782 850 598 290 77 20
0 0 0 0 0 0 0 0 0 0 0 0 0 0 0 0 0 0 0 0 0 0 0 0 0 0 20 37 85 11 17 7 176 279 267 261 407 827 1067 902 598 374 165
0 0 0 0 0 0 0 0 0 0 0 0 0 0 0 0 0 0 0 0 0 0 0 0 0 0 0 4 0 3 83 64 48 169 295 277 325 829 1173 1034 793 587 393
0 0 0 0 0 0 0 0 0 0 0 0 0 0 0 0 0 0 0 0 0 0 0 0 0 0 0 0 0 4 1 15 85 85 183 218 272 779 1004 1028 929 871 676
0 0 0 0 0 0 0 0 0 0 0 0 0 0 0 0 0 0 0 0 0 0 0 0 0 0 0 0 0 0 0 0 20 73 140 161 159 214 422 744 977 1086 1022
0 0 0 0 0 0 0 0 0 0 0 0 0 0 0 0 0 0 0 0 0 0 0 0 0 0 0 0 0 0 0 0 0 0 41 74 207 177 87 190 465 632 807
0 0 0 0 0 0 0 0 0 0 0 0 0 0 0 0 0 0 0 0 0 0 0 0 0 0 0 0 0 0 0 0 0 0 0 0 23 123 193 113 75 181 434
0 0 0 0 0 0 0 0 0 0 0 0 0 0 0 0 0 0 0 0 0 0 0 0 0 0 0 0 0 0 0 0 0 7 4 8 15 54 84 140 111 81 122
0 0 0 0 0 0 0 0 0 0 0 0 0 0 0 0 0 0 0 0 0 0 0 0 0 0 0 0 0 0 0 0 0 0 0 0 0 1 11 33 46 68 64
0 0 0 0 0 0 0 0 0 0 0 0 0 0 0 0 0 0 0 0 0 0 0 0 0 0 0 0 0 0 0 0 0 0 0 1 1 0 0 0 0 2 32
0 0 0 0 0 0 0 0 0 0 0 0 0 0 0 0 0 0 0 0 0 0 0 0 0 0 0 0 0 0 0 0 2 0 0 0 0 0 0 0 0 2 13
0 0 0 0 0 0 0 0 0 0 0 0 0 0 0 0 0 0 0 0 0 0 0 0 0 0 0 0 0 0 0 0 0 0 0 0 0 0 0 0 0 18 26
0 0 0 0 0 0 0 0 0 0 0 0 0 0 0 0 0 0 0 0 0 0 0 0 0 0 0 0 0 0 0 0 0 0 0 0 0 0 0 0 0 0 2
0 0 0 0 0 0 0 0 0 0 0 0 0 0 0 0 0 0 0 0 0 0 0 0 0 0 0 0 0 0 0 0 0 0 0 0 0 0 0 0 0 0 0
0 0 0 0 0 0 0 0 0 0 0 0 0 0 0 0 0 0 0 0 0 0 0 0 0 0 0 0 0 0 0 0 0 0 0 0 0 0 0 0 0 0 0
0 0 0 0 0 0 0 0 0 0 0 0 0 0 0 0 0 0 0 0 0 0 0 0 0 0 0 0 0 0 0 0 0 0 0 0 0 0 0 0 0 0 0
CIN
-0 -0 -0 -21 -0 -3 -0 -0 -1 -0 -0 -0 -0 -0 -0 -0 -0 -0 -0 -0 -0 -0 -0 -6 -4 -2 -0 -0 -0 -3 -13 -23 -0 -0 -0 -5 -1 -0 -0 -0 -0 -0 -0
-0 -0 -8 -0 -1 -0 -6 -0 -0 -0 -0 -0 -0 -3 -0 -0 -0 -0 -0 -0 -0 -0 -0 -0 -6 -15 -21 -22 -22 -25 -26 -19 -18 -0 -5 -39 -23 -3 -0 -5 -8 -11 -0
-0 -0 -0 -33 -34 -26 -37 -14 -24 -43 -36 -17 -0 -0 -0 -0 -1 -0 -0 -0 -0 -0 -0 -0 -0 -3 -14 -29 -40 -52 -57 -59 -65 -12 -0 -12 -57 -51 -34 -25 -22 -30 -31
-5 -0 -0 -18 -29 -16 -38 -39 -19 -15 -2 -0 -0 -1 -1 -0 -0 -6 -10 -6 -2 -0 -0 -0 -0 -0 -6 -18 -18 -21 -47 -76 -90 -71 -61 -26 -4 -2 -13 -36 -47 -46 -33
-1 -1 -0 -20 -3 -15 -47 -75 -96 -16 -3 -0 -0 -0 -22 -28 -25 -12 -11 -23 -36 -31 -23 -22 -30 -39 -58 -45 -41 -50 -70 -103 -73 -87 -102 -84 -27 -1 -0 -0 -12 -23 -36
-97 -30 -61 -31 -18 -9 -0 -0 -0 -0 -0 -68 -12 -0 -11 -0 -0 -0 -0 -0 -0 -13 -19 -20 -37 -53 -59 -99 -134 -142 -138 -100 -61 -58 -87 -118 -57 -3 -2 -11 -0 -0 -7
-10 -60 -3 -54 -33 -0 -0 -70 -0 -0 -0 -28 -28 -3 -0 -0 -0 -0 -0 -0 -0 -1 -11 -7 -12 -23 -34 -72 -126 -190 -42 -39 -31 -23 -18 -4 -92 -9 -2 -8 -14 -6 -17
-0 -0 -0 -2 -0 -0 -0 -0 -0 -68 -35 -0 -44 -20 -21 -12 -27 -82 -0 -58 -38 -42 -58 -48 -66 -45 -44 -56 -86 -157 -147 -34 -43 -90 -39 -18 -112 -12 -21 -31 -15 -9 -33
-0 -0 -0 -0 -0 -0 -0 -0 -0 -0 -11 -13 -0 -82 -40 -23 -83 -0 -0 -0 -111 -72 -45 -53 -37 -58 -87 -72 -85 -166 -0 -17 -37 -14 -144 -52 -128 -24 -24 -29 -35 -36 -53
-0 -0 -0 -0 -0 -0 -0 -0 -0 -0 -0 -0 -0 -0 -13 -0 -0 -0 -0 -0 -0 -0 -108 -80 -56 -28 -32 -42 -0 -0 -66 -10 -14 -21 -10 -42 -138 -52 -37 -51 -52 -41 -51
-0 -0 -0 -0 -0 -0 -0 -0 -0 -0 -0 -0 -0 -0 -0 -0 -0 -0 -0 -0 -0 -0 -71 -0 -0 -73 -20 -21 -31 -0 -0 -14 -1 -27 -6 -12 -117 -32 -16 -31 -57 -77 -107
-0 -0 -0 -0 -0 -0 -0 -0 -0 -0 -0 -0 -0 -0 -0 -0 -0 -0 -0 -0 -0 -0 -0 -0 -0 -0 -29 -41 -27 -66 -89 -84 -59 -92 -68 -16 -114 -43 -5 -6 -23 -44 -61
-0 -0 -0 -0 -0 -0 -0 -0 -0 -0 -0 -0 -0 -0 -0 -0 -0 -0 -0 -0 -0 -0 -0 -0 -0 -0 -0 -8 -0 -8 -34 -32 -45 -52 -91 -59 -46 -39 -4 -9 -18 -17 -38
-0 -0 -0 -0 -0 -0 -0 -0 -0 -0 -0 -0 -0 -0 -0 -0 -0 -0 -0 -0 -0 -0 -0 -0 -0 -0 -0 -0 -0 -5 -0 -34 -30 -38 -33 -55 -76 -25 -4 -3 -16 -7 -3
-0 -0 -0 -0 -0 -0 -0 -0 -0 -0 -0 -0 -0 -0 -0 -0 -0 -0 -0 -0 -0 -0 -0 -0 -0 -0 -0 -0 -0 -0 -0 -0 -31 -34 -15 -19 -72 -64 -56 -13 -1 -0 -1
-0 -0 -0 -0 -0 -0 -0 -0 -0 -0 -0 -0 -0 -0 -0 -0 -0 -0 -0 -0 -0 -0 -0 -0 -0 -0 -0 -0 -0 -0 -0 -0 -0 -0 -29 -35 -11 -14 -41 -11 -36 -23 -12
-0 -0 -0 -0 -0 -0 -0 -0 -0 -0 -0 -0 -0 -0 -0 -0 -0 -0 -0 -0 -0 -0 -0 -0 -0 -0 -0 -0 -0 -0 -0 -0 -0 -0 -0 -0 -11 -28 -8 -36 -48 -63 -48
-0 -0 -0 -0 -0 -0 -0 -0 -0 -0 -0 -0 -0 -0 -0 -0 -0 -0 -0 -0 -0 -0 -0 -0 -0 -0 -0 -0 -0 -0 -0 -0 -0 -0 -0 -0 -0 -61 -48 -10 -10 -13 -44
-0 -0 -0 -0 -0 -0 -0 -0 -0 -0 -0 -0 -0 -0 -0 -0 -0 -0 -0 -0 -0 -0 -0 -0 -0 -0 -0 -0 -0 -0 -0 -0 -0 -0 -0 -0 -0 -1 -0 -31 -32 -41 -13
-0 -0 -0 -0 -0 -0 -0 -0 -0 -0 -0 -0 -0 -0 -0 -0 -0 -0 -0 -0 -0 -0 -0 -0 -0 -0 -0 -0 -0 -0 -0 -0 -0 -0 -0 -0 -0 -0 -0 -0 -0 -0 -13
-0 -0 -0 -0 -0 -0 -0 -0 -0 -0 -0 -0 -0 -0 -0 -0 -0 -0 -0 -0 -0 -0 -0 -0 -0 -0 -0 -0 -0 -0 -0 -0 -1 -0 -0 -0 -0 -0 -0 -0 -0 -0 -9
-0 -0 -0 -0 -0 -0 -0 -0 -0 -0 -0 -0 -0 -0 -0 -0 -0 -0 -0 -0 -0 -0 -0 -0 -0 -0 -0 -0 -0 -0 -0 -0 -0 -0 -0 -0 -0 -0 -0 -0 -0 -4 -1
-0 -0 -0 -0 -0 -0 -0 -0 -0 -0 -0 -0 -0 -0 -0 -0 -0 -0 -0 -0 -0 -0 -0 -0 -0 -0 -0 -0 -0 -0 -0 -0 -0 -0 -0 -0 -0 -0 -0 -0 -0 -0 -1
-0 -0 -0 -0 -0 -0 -0 -0 -0 -0 -0 -0 -0 -0 -0 -0 -0 -0 -0 -0 -0 -0 -0 -0 -0 -0 -0 -0 -0 -0 -0 -0 -0 -0 -0 -0 -0 -0 -0 -0 -0 -0 -0
-0 -0 -0 -0 -0 -0 -0 -0 -0 -0 -0 -0 -0 -0 -0 -0 -0 -0 -0 -0 -0 -0 -0 -0 -0 -0 -0 -0 -0 -0 -0 -0 -0 -0 -0 -0 -0 -0 -0 -0 -0 -0 -0
-0 -0 -0 -0 -0 -0 -0 -0 -0 -0 -0 -0 -0 -0 -0 -0 -0 -0 -0 -0 -0 -0 -0 -0 -0 -0 -0 -0 -0 -0 -0 -0 -0 -0 -0 -0 -0 -0 -0 -0 -0 -0 -0
Wind_Speed
nan nan 19 9 10 8 7 4 3 5 6 6 6 6 7 7 7 7 7 5 7 10 11 12 13 14 13 13 13 11 12 11 8 6 6 6 5 7 9 7 6 6 8
nan nan 15 11 10 8 7 4 2 2 5 7 7 7 9 9 9 9 6 5 5 10 12 13 13 15 16 16 12 6 8 9 8 6 6 6 5 6 9 8 5 5 7
nan nan nan nan nan nan nan nan nan nan nan 3 4 6 8 10 12 11 10 8 8 10 12 11 10 10 11 10 12 10 6 2 2 8 9 7 1 5 8 10 10 8 8
nan nan nan nan nan 3 nan nan nan nan 3 4 5 6 6 8 9 9 8 7 7 9 11 12 10 9 8 7 4 4 6 9 10 14 11 9 6 5 6 10 11 10 10
nan nan nan nan 4 2 nan nan nan nan 7 8 8 7 11 13 13 12 9 7 7 8 8 9 9 8 9 9 6 5 2 5 14 17 15 11 7 7 5 9 11 10 7
nan nan nan 1 5 nan nan nan nan nan nan nan 11 13 15 14 15 15 13 11 11 11 10 8 5 4 7 8 9 7 8 8 nan 15 16 14 12 10 10 9 10 12 11
nan nan nan nan nan nan nan nan nan nan nan nan 14 16 19 19 18 18 18 18 17 15 13 13 12 10 6 5 6 nan nan nan 14 13 13 14 13 12 13 11 11 11 12
nan nan nan nan nan nan nan nan nan nan nan nan nan 17 17 20 22 nan nan nan nan 17 16 15 14 13 12 11 9 7 nan nan nan nan 14 14 nan 15 13 14 15 15 13
nan nan nan nan nan nan nan nan nan nan nan nan nan nan nan 22 nan nan nan nan nan nan nan nan 17 nan 15 14 14 nan nan nan nan nan 14 15 15 16 16 14 14 16 16
nan nan nan nan nan nan nan nan nan nan nan nan nan nan nan nan nan nan nan nan nan nan nan nan nan 19 17 nan nan nan nan nan 15 nan 14 16 19 18 17 19 17 14 15
nan nan nan nan nan nan nan nan nan nan nan nan nan nan nan nan nan nan nan nan nan nan nan nan nan nan 18 16 nan nan nan nan 18 19 18 16 18 17 19 20 19 nan nan
nan nan nan nan nan nan nan nan nan nan nan nan nan nan nan nan nan nan nan nan nan nan nan nan nan nan nan nan nan nan nan nan 21 20 23 19 20 20 17 21 20 20 20
nan nan nan nan nan nan nan nan nan nan nan nan nan nan nan nan nan nan nan nan nan nan nan nan nan nan nan nan nan nan nan nan nan 21 20 24 21 22 20 23 21 17 17
nan nan nan nan nan nan nan nan nan nan nan nan nan nan nan nan nan nan nan nan nan nan nan nan nan nan nan nan nan nan nan nan nan nan 21 23 25 25 24 23 20 19 18
nan nan nan nan nan nan nan nan nan nan nan nan nan nan nan nan nan nan nan nan nan nan nan nan nan nan nan nan nan nan nan nan nan nan 24 28 27 29 33 34 30 19 18
nan nan nan nan nan nan nan nan nan nan nan nan nan nan nan nan nan nan nan nan nan nan nan nan nan nan nan nan nan nan nan nan nan nan nan nan 30 32 nan 41 41 34 25
nan nan nan nan nan nan nan nan nan nan nan nan nan nan nan nan nan nan nan nan nan nan nan nan nan nan nan nan nan nan nan nan nan nan nan nan nan 27 31 35 nan 41 36
nan nan nan nan nan nan nan nan nan nan nan nan nan nan nan nan nan nan nan nan nan nan nan nan nan nan nan nan nan nan nan nan nan nan nan nan nan nan nan 29 29 nan 45
nan nan nan nan nan nan nan nan nan nan nan nan nan nan nan nan nan nan nan nan nan nan nan nan nan nan nan nan nan nan nan nan nan nan nan nan nan nan nan nan nan nan nan
nan nan nan nan nan nan nan nan nan nan nan nan nan nan nan nan nan nan nan nan nan nan nan nan nan nan nan nan nan nan nan nan nan nan nan nan nan nan nan nan nan nan nan
nan nan nan nan nan nan nan nan nan nan nan nan nan nan nan nan nan nan nan nan nan nan nan nan nan nan nan nan nan nan nan nan nan nan nan nan nan nan nan nan nan nan nan
nan nan nan nan nan nan nan nan nan nan nan nan nan nan nan nan nan nan nan nan nan nan nan nan nan nan nan nan nan nan nan nan nan nan nan nan nan nan nan nan nan nan nan
nan nan nan nan nan nan nan nan nan nan nan nan nan nan nan nan nan nan nan nan nan nan nan nan nan nan nan nan nan nan nan nan nan nan nan nan nan nan nan nan nan nan nan
nan nan nan nan nan nan nan nan nan nan nan nan nan nan nan nan nan nan nan nan nan nan nan nan nan nan nan nan nan nan nan nan nan nan nan nan nan nan nan nan nan nan nan
nan nan nan nan nan nan nan nan nan nan nan nan nan nan nan nan nan nan nan nan nan nan nan nan nan nan nan nan nan nan nan nan nan nan nan nan nan nan nan nan nan nan nan
nan nan nan nan nan nan nan nan nan nan nan nan nan nan nan nan nan nan nan nan nan nan nan nan nan nan nan nan nan nan nan nan nan nan nan nan nan nan nan nan nan nan nan
Wind_Direction
nan nan 112 119 117 113 108 116 172 182 205 234 277 289 290 279 286 292 300 305 329 340 343 343 342 333 321 306 288 267 251 246 255 264 275 287 293 303 296 269 224 209 213
nan nan 120 120 110 109 115 115 132 219 233 228 246 274 292 298 292 284 274 276 289 317 333 338 346 345 344 347 352 323 249 240 248 274 289 279 268 273 291 292 275 232 227
nan nan nan nan nan nan nan nan nan nan nan 295 266 259 276 285 283 280 280 275 278 289 307 313 324 332 336 351 7 10 10 6 310 322 316 324 308 261 276 287 285 273 256
nan nan nan nan nan 45 nan nan nan nan 333 324 309 302 290 285 283 275 270 272 274 279 282 288 292 294 298 314 346 45 54 44 356 346 332 324 304 305 297 287 278 276 276
nan nan nan nan 32 282 nan nan nan nan 212 229 240 288 292 286 281 275 272 275 268 260 270 277 281 286 292 300 305 306 256 319 348 344 337 326 318 314 310 296 291 281 269
nan nan nan 301 260 nan nan nan nan nan nan nan 269 281 294 285 273 265 251 249 252 253 246 244 258 267 281 283 292 291 291 289 nan 334 339 344 332 330 316 305 287 285 277
nan nan nan nan nan nan nan nan nan nan nan nan 263 271 290 286 281 278 273 267 264 263 256 242 245 249 240 260 278 nan nan nan 310 321 330 334 334 340 326 314 300 292 288
nan nan nan nan nan nan nan nan nan nan nan nan nan 267 272 275 271 nan nan nan nan 256 254 255 258 266 275 273 260 257 nan nan nan nan 322 322 nan 337 330 316 303 293 286
nan nan nan nan nan nan nan nan nan nan nan nan nan nan nan 268 nan nan nan nan nan nan nan nan 262 nan 268 270 255 nan nan nan nan nan 303 304 323 328 321 316 307 299 291
nan nan nan nan nan nan nan nan nan nan nan nan nan nan nan nan nan nan nan nan nan nan nan nan nan 259 267 nan nan nan nan nan 274 nan 283 294 315 314 311 310 309 302 299
nan nan nan nan nan nan nan nan nan nan nan nan nan nan nan nan nan nan nan nan nan nan nan nan nan nan 264 270 nan nan nan nan 284 282 279 284 301 302 297 293 296 nan nan
nan nan nan nan nan nan nan nan nan nan nan nan nan nan nan nan nan nan nan nan nan nan nan nan nan nan nan nan nan nan nan nan 298 283 279 263 295 296 292 297 297 295 296
nan nan nan nan nan nan nan nan nan nan nan nan nan nan nan nan nan nan nan nan nan nan nan nan nan nan nan nan nan nan nan nan nan 298 291 268 277 290 288 287 286 284 293
nan nan nan nan nan nan nan nan nan nan nan nan nan nan nan nan nan nan nan nan nan nan nan nan nan nan nan nan nan nan nan nan nan nan 292 274 272 265 256 259 284 287 283
nan nan nan nan nan nan nan nan nan nan nan nan nan nan nan nan nan nan nan nan nan nan nan nan nan nan nan nan nan nan nan nan nan nan 293 269 273 263 254 248 250 271 284
nan nan nan nan nan nan nan nan nan nan nan nan nan nan nan nan nan nan nan nan nan nan nan nan nan nan nan nan nan nan nan nan nan nan nan nan 266 265 nan 252 251 253 258
nan nan nan nan nan nan nan nan nan nan nan nan nan nan nan nan nan nan nan nan nan nan nan nan nan nan nan nan nan nan nan nan nan nan nan nan nan 268 265 251 nan 249 253
nan nan nan nan nan nan nan nan nan nan nan nan nan nan nan nan nan nan nan nan nan nan nan nan nan nan nan nan nan nan nan nan nan nan nan nan nan nan nan 255 256 nan 249
nan nan nan nan nan nan nan nan nan nan nan nan nan nan nan nan nan nan nan nan nan nan nan nan nan nan nan nan nan nan nan nan nan nan nan nan nan nan nan nan nan nan nan
nan nan nan nan nan nan nan nan nan nan nan nan nan nan nan nan nan nan nan nan nan nan nan nan nan nan nan nan nan nan nan nan nan nan nan nan nan nan nan nan nan nan nan
nan nan nan nan nan nan nan nan nan nan nan nan nan nan nan nan nan nan nan nan nan nan nan nan nan nan nan nan nan nan nan nan nan nan nan nan nan nan nan nan nan nan nan
nan nan nan nan nan nan nan nan nan nan nan nan nan nan nan nan nan nan nan nan nan nan nan nan nan nan nan nan nan nan nan nan nan nan nan nan nan nan nan nan nan nan nan
nan nan nan nan nan nan nan nan nan nan nan nan nan nan nan nan nan nan nan nan nan nan nan nan nan nan nan nan nan nan nan nan nan nan nan nan nan nan nan nan nan nan nan
nan nan nan nan nan nan nan nan nan nan nan nan nan nan nan nan nan nan nan nan nan nan nan nan nan nan nan nan nan nan nan nan nan nan nan nan nan nan nan nan nan nan nan
nan nan nan nan nan nan nan nan nan nan nan nan nan nan nan nan nan nan nan nan nan nan nan nan nan nan nan nan nan nan nan nan nan nan nan nan nan nan nan nan nan nan nan
nan nan nan nan nan nan nan nan nan nan nan nan nan nan nan nan nan nan nan nan nan nan nan nan nan nan nan nan nan nan nan nan nan nan nan nan nan nan nan nan nan nan nan